Location: Sentenac-de-Sérou
(42.9686°N, 1.3877°E)
Time: 12:42:35
(UTC+00:00)

Daily predictions for brighter satellites

Satellite Brightness Start Highest point End
(mag) Time Altitude Azimuth Time Altitude Azimuth Time Altitude Azimuth
Cosmos 2233 Rocket 4.0 18:25:30 10° S 18:31:35 71° E 18:37:43 10° NNE
Resurs 1-3 4.0 18:31:19 10° SE 18:35:24 42° ENE 18:39:30 10° N
SAR-Lupe-2 3.7 18:39:54 10° SSE 18:43:22 51° ENE 18:46:52 10° N
Meteor PRIRODA 3.9 18:45:05 10° SE 18:48:09 39° ENE 18:51:15 10° N
Landsat 7 4.3 18:43:36 10° S 18:48:15 64° W 18:52:56 10° NNW
Cosmos 1536 3.8 18:49:35 10° SE 18:52:37 23° E 18:55:40 10° NE
Okean 3 Rocket 4.4 18:49:11 10° SSE 18:53:02 29° E 18:56:51 10° NNE
Cosmos 1842 3.8 18:50:11 10° NNE 18:53:28 32° ENE 18:56:44 10° SE
Cosmos 2061 Rocket 4.4 18:47:12 10° SSW 18:53:38 76° W 19:00:06 10° N
COSMOS 2428 2.7 18:48:17 10° SSW 18:53:58 82° ESE 18:59:44 10° NNE
USA 59 Rocket 0.4 18:50:44 10° NNW 18:54:38 55° NE 19:00:01 10° SE
Cosmos 1707 3.4 18:54:09 10° NNE 18:57:16 28° ENE 19:00:08 11° SE
Okean O Rocket 3.2 18:57:42 13° E 18:59:56 19° ENE 19:02:59 10° NNE
USA 306 4.0 19:04:05 10° W 19:06:47 29° NNW 19:09:54 10° NE
CZ-4B DEB 4.2 19:02:05 10° SSE 19:07:34 70° ENE 19:13:02 10° N
Cosmos 2278 Rocket 2.5 19:02:22 10° NNW 19:07:53 50° ENE 19:12:39 14° SE
CZ-4 R/B 1.4 19:04:57 10° SSE 19:08:39 54° ENE 19:12:26 10° N
CZ-4B R/B 3.6 19:06:59 10° SE 19:12:07 43° ENE 19:17:12 10° N
Cosmos 1766 Rocket 3.5 19:08:14 10° S 19:12:35 89° W 19:17:00 10° N
NOSS 3-3 (C) 4.3 19:09:38 10° S 19:14:09 30° ESE 19:19:14 10° NE
Resurs 01 Rocket 2.0 19:10:19 12° SE 19:14:12 44° ENE 19:18:24 10° N
Cosmos 44 Rocket 4.5 19:09:53 10° NW 19:14:18 40° WSW 19:18:38 10° S
NOSS 2-1 (C) 3.6 19:11:00 10° NW 19:14:58 84° NE 19:19:46 13° SE
YAOGAN 1 4.3 19:12:44 10° SSW 19:16:37 34° W 19:20:32 10° NNW
ADEOS 3.7 19:11:32 10° SSE 19:16:44 80° WSW 19:21:59 10° NNW
TSX-5 4.1 19:13:54 10° NW 19:16:57 50° WSW 19:20:14 10° S
Meteor 2-17 Rocket 4.4 19:11:37 10° N 19:17:37 63° E 19:23:37 10° SSE
GEOS 3 Rocket 3.7 19:13:40 16° SE 19:17:48 62° NE 19:22:55 10° NNW
Helios 1A 2.8 19:14:09 10° NNE 19:18:14 90° ESE 19:22:16 10° SSW
USA 290 2.2 19:15:03 10° NNW 19:18:19 62° ENE 19:20:16 22° SE
USA 186 2.1 19:17:45 22° SE 19:19:31 45° ENE 19:22:37 10° N
CZ-4B R/B 3.6 19:14:54 10° S 19:19:37 73° WSW 19:24:25 10° NNW
Cosmos 1814 Rocket 4.3 19:15:03 10° SSW 19:20:20 71° WNW 19:25:36 10° NNE
PAYLOAD B 4.2 19:15:08 10° SSE 19:20:40 70° ENE 19:26:16 10° N
SPOT 5 4.3 19:22:14 17° ENE 19:22:56 18° ENE 19:25:57 10° NNE
Okean-O 4.1 19:23:04 18° ENE 19:23:43 19° ENE 19:26:47 10° NNE
KORONAS-FOTON 3.6 19:20:42 10° N 19:24:24 88° E 19:28:04 10° S
Cosmos 1408 Rocket 4.0 19:22:58 11° SSE 19:26:43 37° E 19:30:48 10° NNE
SPOT 1/Viking Rocket 3.9 19:22:45 10° S 19:27:53 66° WSW 19:33:02 10° NNW
NOSS 3-3 (A) 4.0 19:23:18 10° S 19:28:12 42° ESE 19:33:46 10° NE
ISS -3.6 19:25:04 10° WSW 19:28:24 71° NNW 19:30:43 19° NE
CZ-4B R/B 2.7 19:24:52 10° SSE 19:28:42 89° W 19:32:43 10° NNW
Cosmos 2237 Rocket 2.1 19:27:25 10° SSW 19:32:59 69° ESE 19:38:35 10° NNE
SL-08 R/B 4.3 19:30:01 10° N 19:34:48 51° WNW 19:39:32 10° SW
Aureole 3 Rocket 4.3 19:29:02 10° SSE 19:35:39 41° E 19:40:33 10° NNE
CSL-04 Rocket 3.6 19:31:44 17° SSE 19:35:52 62° ENE 19:41:07 10° N
Cosmos 1674 4.3 19:39:07 10° NNW 19:42:04 29° W 19:44:58 10° SSW
SJ-6B 4.3 19:41:07 10° SSW 19:44:25 33° W 19:47:43 10° NNW
Cosmos 1356 Rocket 3.5 19:40:14 10° NNW 19:44:26 76° W 19:47:40 16° S
Meteor 1-11 Rocket 3.6 19:39:07 10° S 19:44:42 68° E 19:50:13 10° NNE
Aureole 1 4.3 19:42:14 10° NNW 19:45:25 86° ENE 19:46:29 43° SSE
Lacrosse 4 Rocket 3.8 19:42:46 10° WNW 19:46:04 21° WSW 19:49:19 10° SSW
Meteor 1-4 Rocket 3.8 19:44:58 10° NNW 19:47:19 28° W 19:49:06 14° SSW
IKONOS-2 4.4 19:43:58 10° NNE 19:48:04 59° E 19:50:24 24° S
CARTOSAT-1 3.6 19:46:05 18° S 19:49:10 78° WSW 19:53:26 10° NNW
Cosmos 158 Rocket 3.7 19:45:07 10° S 19:49:58 71° ESE 19:54:49 10° NNE
ATLAS CENTAUR R/B 0.9 19:46:41 10° SW 19:50:12 85° NW 19:53:55 10° NNE
Cosmos 1805 Rocket 3.7 19:52:47 46° E 19:52:50 46° E 19:56:59 10° NNE
Cosmos 1733 3.4 19:53:47 10° SSW 19:57:11 59° W 20:00:35 10° N
Cosmos 1428 Rocket 4.4 19:53:42 10° N 19:59:44 61° E 20:02:18 35° SE
USA 276 3.1 19:58:41 10° WNW 20:00:38 39° NW 20:00:38 39° NW
In-Cosmos 22 4.2 19:56:42 10° NNW 20:02:25 84° W 20:06:00 23° S
Cosmos 1980 4.1 19:56:56 10° SW 20:02:34 66° WNW 20:08:15 10° NNE
Cosmos 2369 Rocket 3.7 20:00:20 10° N 20:04:37 21° NE 20:05:11 21° ENE
Sich 1 2.8 20:07:34 67° SE 20:07:59 75° E 20:12:17 10° NNE
BlueWalker 3 3.6 20:08:39 10° WNW 20:11:41 23° SW 20:12:13 23° SW
Cosmos 1943 Rocket 2.2 20:06:30 10° NNW 20:12:01 78° WSW 20:14:05 40° S
Terra 3.1 20:13:52 25° NE 20:13:52 25° NE 20:16:50 10° N
ACS3 Solar Sail 1.8 20:09:36 28° SSE 20:13:16 88° ENE 20:19:43 10° NNW
ERS-1 Rocket 3.8 20:14:04 34° NE 20:14:04 34° NE 20:18:06 10° N
Cosmos 1570 Rocket 4.5 20:10:01 10° SSW 20:15:15 61° WNW 20:20:28 10° NNE
Cosmos 2298 Rocket 4.0 20:10:38 10° NNW 20:15:54 62° ENE 20:16:27 58° E
Nadezhda 4 Rocket 4.2 20:10:51 10° NNW 20:17:06 72° W 20:21:40 20° S
Cosmos 2195 Rocket 4.3 20:11:08 10° N 20:17:16 74° E 20:19:11 46° SSE
Cosmos 2150 Rocket 3.9 20:12:28 10° NNW 20:17:36 63° ENE 20:17:56 62° E
USA 32 3.9 20:13:10 10° N 20:18:26 77° E 20:19:24 59° SSE
Cosmos 1805 4.2 20:21:37 38° N 20:21:37 38° N 20:23:59 10° N
Ariane Rocket 4.4 20:24:22 24° NE 20:24:22 24° NE 20:27:21 10° N
Cosmos 1315 Rocket 3.1 20:20:31 10° NNW 20:24:26 60° W 20:24:27 60° W
Cosmos 2026 Rocket 3.8 20:18:24 10° N 20:24:38 71° E 20:25:51 56° SE
Cosmos 1092 Rocket 3.9 20:18:47 10° N 20:25:08 70° E 20:26:28 55° SE
IRS-1A Rocket 4.4 20:26:28 54° E 20:26:43 54° ENE 20:32:16 10° N
Meteor 2-12 Rocket 4.4 20:22:18 10° N 20:28:25 61° E 20:28:56 59° ESE
SL-16 R/B 2.8 20:35:17 41° NE 20:35:17 41° NE 20:39:00 10° NNE
Cosmos 1125 Rocket 4.3 20:29:02 10° NNW 20:34:00 47° WSW 20:35:39 35° SSW
Okean O Rocket 2.5 20:35:02 41° SW 20:35:50 46° W 20:40:07 10° NNW
Cosmos 1634 Rocket 3.9 20:36:32 63° SSE 20:37:27 74° E 20:43:47 10° N
Cosmos 1656 Rocket 4.1 20:36:23 10° NNW 20:41:19 48° NE 20:41:19 48° NE
CZ-4 R/B 4.3 20:42:25 10° WSW 20:43:31 11° W 20:44:37 10° WNW
USA 59 Rocket 2.6 20:40:51 10° WNW 20:44:08 19° WSW 20:46:30 15° SSW
IRS-1C Rocket 4.3 20:45:02 60° NNE 20:45:02 60° NNE 20:49:34 10° N
Cosmos 773 Rocket 4.0 20:45:39 79° W 20:45:45 79° WNW 20:51:05 10° NNE
Resurs 01 Rocket 4.1 20:47:48 10° SW 20:50:49 18° W 20:53:51 10° NW
Cosmos 2278 Rocket 4.1 20:47:06 10° NW 20:51:36 25° WSW 20:54:31 16° SW
MetOp-B 4.3 20:56:15 67° W 20:56:15 67° W 21:01:34 10° NNW
Cosmos 2228 Rocket 4.4 20:52:40 10° N 20:55:20 35° N 20:55:20 35° N
Okean-O 3.8 21:00:32 40° WNW 21:00:32 40° WNW 21:03:58 10° NNW
SPOT 5 3.7 21:01:22 45° WNW 21:01:22 45° WNW 21:05:00 10° NNW
ISS -0.5 21:02:57 10° WNW 21:03:42 14° NW 21:03:42 14° NW
USA 267 4.2 21:08:23 33° NE 21:09:44 36° NNE 21:15:33 10° NW
Cosmos 2279 Rocket 4.2 21:20:00 64° NNW 21:20:00 64° NNW 21:25:16 10° N
Cosmos 1607 4.5 21:16:30 10° SW 21:22:51 58° NW 21:29:13 10° NNE
ATLAS CENTAUR R/B 4.4 21:27:05 10° NW 21:28:14 11° NW 21:29:25 10° NNW
NOSS 3-4 (A) 4.0 21:38:41 10° NW 21:44:37 68° NW 21:44:37 68° NW
NOSS 3-4 (C) 4.0 21:38:48 10° NW 21:44:43 68° NW 21:44:43 68° NW
Cosmos 2369 Rocket 3.5 21:43:30 10° NNW 21:46:58 38° NW 21:46:58 38° NW
Terra 4.1 21:52:34 21° NW 21:52:34 21° NW 21:54:33 10° NNW
ACS3 Solar Sail 4.2 21:54:51 11° WSW 21:58:04 15° W 22:01:36 10° NW
SL-16 R/B 4.3 22:17:00 22° WNW 22:17:57 22° NW 22:22:21 10° N
ATLAS 2AS CENTAUR R/B 4.5 22:31:19 10° NNW 22:36:27 22° NNE 22:36:31 22° NNE
Cosmos 2344 4.3 23:20:44 10° NW 23:27:14 59° N 23:27:14 59° N
